Date String (YYYY-MM-DD hh:mm:ss) UTC,Instrument flags,Ambient pressure (hPa),Sample flow (lpm),Bypass flow (lpm),Sample temperature (°C),Ambient temperature (°C),ASC tube jacket temperature (°C),LED temperature (°C),Box temperature (°C),Sample RH (%),Span deviation,Mass concentration (μg/m³),Mass concentration (μg/m³),Mass concentration (μg/m³)
DateTimeUTC,F1_M11,P_M11,Q1_M11,Q2_M11,T1_M11,T2_M11,T3_M11,T4_M11,T5_M11,U1_M11,ZSPAN_M11,X0_M11,X2_M11,X1_M11
2021-09-02 05:00:00,,0823.4,5.00,0.00,29.4,27.8,00.0,38.5,31.1,30.5,0001.7,0023.41,0016.65,0015.89
2021-09-02 05:01:00,,0823.4,5.00,0.00,29.4,28.0,00.0,38.5,31.2,30.4,0001.7,0023.52,0016.67,0015.88
2021-09-02 05:02:00,,0823.4,4.99,0.00,29.4,28.2,00.0,38.5,31.2,30.3,0001.7,0023.47,0016.62,0015.83
2021-09-02 05:03:00,,0823.4,5.01,0.00,29.5,28.4,00.0,38.5,31.3,30.3,0001.8,0023.68,0016.62,0015.82
2021-09-02 05:04:00,,0823.4,4.99,0.00,29.5,28.5,00.0,38.5,31.3,30.2,0001.9,0023.42,0016.62,0015.80
2021-09-02 05:05:00,,0823.4,5.01,0.00,29.5,28.6,00.0,38.5,31.4,30.1,0001.9,0023.81,0016.60,0015.79
2021-09-02 05:06:00,,0823.4,5.00,0.00,29.6,28.7,00.0,38.5,31.4,30.1,0002.1,0023.91,0016.61,0015.81
2021-09-02 05:07:00,,0823.4,4.99,0.00,29.6,28.8,00.0,38.6,31.4,30.0,0002.0,0023.86,0016.67,0015.80
2021-09-02 05:08:00,,0823.4,5.00,0.00,29.6,28.8,00.0,38.6,31.5,30.0,0001.9,0023.91,0016.70,0015.78
2021-09-02 05:09:00,,0823.5,5.01,0.00,29.7,28.9,00.0,38.6,31.5,30.0,0001.9,0024.01,0016.72,0015.76
2021-09-02 05:10:00,,0823.5,5.00,0.00,29.7,28.7,00.0,38.6,31.5,29.9,0001.9,0023.44,0016.72,0015.77
2021-09-02 05:11:00,,0823.5,4.99,0.00,29.6,26.8,00.0,38.6,31.0,30.0,0002.0,0023.32,0016.77,0015.78
2021-09-02 05:12:00,,0823.5,5.00,0.00,29.4,25.4,00.0,38.6,30.7,30.3,0002.1,0023.27,0016.76,0015.78
2021-09-02 05:13:00,,0823.6,5.01,0.00,29.3,25.4,00.0,38.6,30.6,30.5,0001.9,0023.33,0016.72,0015.76
2021-09-02 05:14:00,,0823.6,5.00,0.00,29.2,25.8,00.0,38.5,30.6,30.7,0001.8,0023.76,0016.76,0015.74
2021-09-02 05:15:00,,0823.6,4.99,0.00,29.1,26.3,00.0,38.5,30.7,31.0,0001.7,0023.49,0016.76,0015.74
2021-09-02 05:16:00,,0823.7,5.00,0.00,29.1,26.8,00.0,38.4,30.8,31.1,0001.7,0022.96,0016.76,0015.74
2021-09-02 05:17:00,,0823.7,5.01,0.00,29.1,27.1,00.0,38.4,30.9,31.3,0001.5,0022.26,0016.73,0015.72
2021-09-02 05:18:00,,0823.7,4.99,0.00,29.2,27.4,00.0,38.4,30.9,31.5,0001.7,0022.18,0016.67,0015.68
2021-09-02 05:19:00,,0823.7,5.01,0.00,29.2,27.7,00.0,38.4,31.0,31.7,0001.8,0022.35,0016.69,0015.69
2021-09-02 05:20:00,,0823.7,4.99,0.00,29.2,27.9,00.0,38.4,31.0,31.8,0001.9,0022.47,0016.68,0015.69
2021-09-02 05:21:00,,0823.7,5.00,0.00,29.3,28.0,00.0,38.4,31.1,31.9,0001.9,0022.56,0016.71,0015.67
2021-09-02 05:22:00,,0823.7,5.00,0.00,29.3,28.2,00.0,38.4,31.1,31.8,0001.8,0023.13,0016.67,0015.64
2021-09-02 05:23:00,,0823.7,5.01,0.00,29.3,28.3,00.0,38.4,31.2,31.8,0001.8,0023.16,0016.63,0015.61
2021-09-02 05:24:00,,0823.7,5.00,0.00,29.4,28.4,00.0,38.4,31.2,31.8,0001.9,0023.53,0016.64,0015.59
2021-09-02 05:25:00,,0823.7,5.00,0.00,29.4,28.4,00.0,38.4,31.3,31.8,0001.8,0022.99,0016.61,0015.58
2021-09-02 05:26:00,,0823.7,5.01,0.00,29.4,28.5,00.0,38.4,31.3,32.0,0001.8,0023.05,0016.57,0015.54
2021-09-02 05:27:00,,0823.7,5.01,0.00,29.5,28.6,00.0,38.5,31.3,31.9,0002.0,0023.11,0016.57,0015.51
2021-09-02 05:28:00,,0823.7,4.99,0.00,29.5,28.6,00.0,38.5,31.4,32.0,0002.1,0023.04,0016.56,0015.50
2021-09-02 05:29:00,,0823.8,5.00,0.00,29.5,28.7,00.0,38.5,31.4,32.1,0002.1,0023.00,0016.50,0015.48
2021-09-02 05:30:00,,0823.8,5.01,0.00,29.6,28.8,00.0,38.5,31.4,32.0,0002.2,0023.29,0016.45,0015.46
2021-09-02 05:31:00,,0823.8,4.99,0.00,29.6,28.8,00.0,38.6,31.5,32.0,0002.0,0023.78,0016.46,0015.43
2021-09-02 05:32:00,,0823.8,4.99,0.00,29.6,28.9,00.0,38.6,31.5,31.9,0001.8,0023.93,0016.45,0015.41
2021-09-02 05:33:00,,0823.8,5.00,0.00,29.7,28.9,00.0,38.6,31.5,31.8,0001.8,0023.61,0016.44,0015.41
2021-09-02 05:34:00,,0823.8,4.99,0.00,29.7,27.8,00.0,38.6,31.3,31.9,0001.7,0023.66,0016.50,0015.41
2021-09-02 05:35:00,,0823.8,5.00,0.00,29.5,26.4,00.0,38.6,30.9,32.1,0001.7,0023.30,0016.52,0015.40
2021-09-02 05:36:00,,0823.8,5.00,0.00,29.4,26.2,00.0,38.6,30.9,32.3,0001.7,0023.48,0016.50,0015.40
2021-09-02 05:37:00,,0823.7,5.00,0.00,29.3,26.6,00.0,38.6,30.9,32.5,0001.7,0023.84,0016.49,0015.37
2021-09-02 05:38:00,,0823.8,5.00,0.00,29.3,27.0,00.0,38.5,30.9,32.5,0001.5,0023.93,0016.47,0015.35
2021-09-02 05:39:00,,0823.8,5.01,0.00,29.3,27.4,00.0,38.5,31.0,32.4,0001.5,0023.94,0016.42,0015.30
2021-09-02 05:40:00,,0823.8,4.99,0.00,29.4,27.6,00.0,38.5,31.1,32.4,0001.4,0023.85,0016.43,0015.27
2021-09-02 05:41:00,,0823.8,5.01,0.00,29.4,27.9,00.0,38.5,31.1,32.2,0001.3,0023.23,0016.32,0015.17
2021-09-02 05:42:00,,0823.9,5.00,0.00,29.4,28.0,00.0,38.5,31.2,32.2,0001.4,0022.33,0016.20,0015.10
2021-09-02 05:43:00,,0823.9,5.01,0.00,29.4,28.2,00.0,38.5,31.3,32.1,0001.7,0022.06,0016.12,0015.05
2021-09-02 05:44:00,,0823.9,4.99,0.00,29.4,28.3,00.0,38.5,31.3,32.2,0002.0,0021.70,0016.04,0014.97
2021-09-02 05:45:00,,0824.0,5.01,0.00,29.5,28.4,00.0,38.5,31.3,32.3,0002.0,0021.54,0015.91,0014.92
2021-09-02 05:46:00,,0824.0,5.00,0.00,29.5,28.5,00.0,38.5,31.4,32.2,0002.0,0021.41,0015.82,0014.86
2021-09-02 05:47:00,,0823.9,4.98,0.00,29.5,28.5,00.0,38.6,31.4,32.2,0002.0,0021.01,0015.74,0014.79
2021-09-02 05:48:00,,0824.0,5.00,0.00,29.6,28.6,00.0,38.6,31.5,32.3,0001.9,0020.84,0015.71,0014.73
2021-09-02 05:49:00,,0824.0,5.00,0.00,29.6,28.6,00.0,38.6,31.5,32.5,0002.0,0020.67,0015.68,0014.66
2021-09-02 05:50:00,,0824.0,5.00,0.00,29.6,28.7,00.0,38.6,31.5,32.2,0002.0,0020.61,0015.66,0014.65
2021-09-02 05:51:00,,0824.0,5.00,0.00,29.7,28.7,00.0,38.7,31.5,32.2,0001.8,0020.54,0015.61,0014.62
2021-09-02 05:52:00,,0824.1,5.01,0.00,29.7,28.8,00.0,38.7,31.5,32.0,0002.0,0021.04,0015.65,0014.62
2021-09-02 05:53:00,,0824.0,5.01,0.00,29.7,28.1,00.0,38.7,31.3,32.1,0002.1,0021.38,0015.67,0014.61
2021-09-02 05:54:00,,0824.1,5.00,0.00,29.6,26.4,00.0,38.7,30.9,32.3,0002.1,0021.38,0015.64,0014.59
2021-09-02 05:55:00,,0824.0,4.99,0.00,29.4,26.1,00.0,38.6,30.8,32.3,0002.0,0021.53,0015.67,0014.59
2021-09-02 05:56:00,,0824.0,5.01,0.00,29.3,26.4,00.0,38.6,30.9,32.3,0001.9,0021.38,0015.64,0014.56
2021-09-02 05:57:00,,0824.1,5.00,0.00,29.3,26.9,00.0,38.6,30.9,32.2,0002.1,0021.35,0015.60,0014.52
2021-09-02 05:58:00,,0824.0,5.00,0.00,29.3,27.2,00.0,38.5,31.0,32.2,0002.0,0021.42,0015.53,0014.47
2021-09-02 05:59:00,,0824.1,5.00,0.00,29.3,27.5,00.0,38.5,31.0,32.1,0002.2,0020.94,0015.45,0014.42
